Flag for Lithuania Weather past 2 weeks in Kaunas, Lithuania

30 °F


Feels Like: 30 °F
Forecast: 31 / 44 °F
Wind: No wind

Location: Kaunas

Current Time: Oct 10, 2015 at 3:43:21 AM

Latest Report: Oct 10, 2015 at 3:20 AM

Visibility: 6 mi

Pressure: 30.36 "Hg

Humidity: 93%

Dew point: 28 °F

Location of KaunasLocation

Historic Weather in Kaunas — Graph


Kaunas temperature yesterday

Maximum temperature yesterday: 46 °F (at 4:20 PM)
Minimum temperature yesterday: 30 °F (at 7:20 AM)
Average temperature yesterday: 37 °F

Past Weeks' High & Low Weather Summary

High64 °F (Oct 4, 2:50 PM)100% (Sep 25, 6:50 AM)30.63 "Hg (Sep 25, 6:50 AM)
Low25 °F (Oct 8, 3:20 AM)39% (Oct 9, 12:50 PM)29.92 "Hg (Oct 4, 4:50 PM)
Average48 °F80%30.23 "Hg
* Reported Sep 25 2:20 AM — Oct 10 2:20 AM, Kaunas, Weather by CustomWeather, © 2015

Note: Actual official high and low records may vary slightly from our data, if they occured in-between our weather recording intervals... More about our weather records


Kaunas weather history for previous 24 hours

Time TempWeatherWind HumidityBarometerVisibility
2:20 AM
Sat, Oct 10
32 °FChilly.No wind87%30.36 "Hg4 mi
1:50 AM34 °FOvercast.No wind81%30.36 "Hg3 mi
1:20 AM34 °FOvercast.1 mph87%30.36 "Hg5 mi
12:20 AM34 °FOvercast.No wind81%30.36 "Hg2 mi
11:50 PM
Fri, Oct 9
34 °FClear.No wind81%30.36 "Hg4 mi
11:20 PM32 °FIce fog.1 mph80%30.36 "Hg3 mi
10:50 PM34 °FOvercast.No wind75%30.33 "Hg6 mi
10:20 PM32 °FClear.No wind80%30.33 "Hg10 mi
9:50 PM32 °FClear.No wind80%30.33 "Hg10 mi
9:20 PM30 °FClear.No wind86%30.33 "Hg10 mi
8:50 PM30 °FClear.No wind86%30.33 "Hg10 mi
8:20 PM32 °FClear.No wind80%30.33 "Hg10 mi
7:50 PM34 °FClear.No wind75%30.33 "Hg10 mi
7:20 PM36 °FSunny.No wind75%30.33 "Hg10 mi
6:50 PM37 °FSunny.No wind60%30.30 "Hg10 mi
6:20 PM43 °FPassing clouds.3 mph46%30.30 "HgN/A
5:20 PM45 °FPassing clouds.7 mph42%30.30 "HgN/A
4:50 PM45 °FPassing clouds.5 mph39%30.33 "HgN/A
4:20 PM46 °FPassing clouds.6 mph40%30.33 "HgN/A
3:50 PM45 °FPassing clouds.6 mph39%30.33 "HgN/A
3:20 PM45 °FPassing clouds.6 mph42%30.33 "HgN/A
2:50 PM45 °FPassing clouds.8 mph42%30.33 "HgN/A
2:20 PM45 °FPassing clouds.7 mph39%30.33 "HgN/A
1:50 PM45 °FPartly sunny.8 mph39%30.33 "HgN/A
1:20 PM45 °FPassing clouds.8 mph42%30.33 "HgN/A
12:50 PM45 °FScattered clouds.9 mph39%30.33 "HgN/A
12:20 PM43 °FPassing clouds.8 mph46%30.33 "HgN/A
11:50 AM43 °FPassing clouds.6 mph49%30.36 "HgN/A
11:20 AM41 °FPassing clouds.6 mph57%30.36 "HgN/A
10:50 AM41 °FPassing clouds.5 mph57%30.33 "HgN/A
10:20 AM37 °FPassing clouds.5 mph70%30.33 "HgN/A
9:50 AM36 °FPassing clouds.3 mph75%30.33 "HgN/A
9:20 AM34 °FSunny.2 mph81%30.33 "Hg10 mi
8:50 AM32 °FSunny.No wind80%30.33 "Hg10 mi
8:20 AM30 °FClear.No wind86%30.33 "Hg10 mi
7:50 AM30 °FClear.No wind86%30.33 "Hg10 mi
7:20 AM30 °FClear.No wind86%30.33 "Hg10 mi
6:20 AM32 °FClear.No wind87%30.33 "Hg10 mi
5:50 AM34 °FClear.No wind87%30.33 "Hg10 mi
5:20 AM36 °FClear.No wind81%30.33 "Hg10 mi
4:50 AM36 °FClear.1 mph81%30.33 "Hg10 mi
4:20 AM36 °FClear.1 mph87%30.33 "Hg10 mi
3:50 AM36 °FClear.No wind81%30.33 "Hg10 mi
3:20 AM37 °FOvercast.No wind75%30.33 "HgN/A
Weather by CustomWeather, © 2015

See weather overviewHow to use our weather pages